Detroit, MI

4:40 PM EST on February 24, 2017 (GMT -0500)
Detroit Metro Wayne County

Weather History for KDTW - September, 2013

Change the Weather History Date:

Saturday, September 28, 2013

  Actual Average Record
Temperature  
Mean Temperature 64 °F 59 °F  
Max Temperature 74 °F 69 °F 87 °F (1905)
Min Temperature 54 °F 50 °F 33 °F (1991)
Degree Days  
Heating Degree Days 1 7  
Month to date heating degree days 95 89  
Since 1 July heating degree days 107 99  
Cooling Degree Days 0 1  
Month to date cooling degree days 78 81  
Year to date cooling degree days 871 792  
Growing Degree Days 13 (Base 50)    
Moisture  
Dew Point 55 °F    
Average Humidity 73    
Maximum Humidity 100    
Minimum Humidity 46    
Precipitation  
Precipitation 0.00 in 0.09 in 2.13 in (1959)
Month to date precipitation 1.10 3.07  
Year to date precipitation 32.08 25.50  
Snow  
Snow 0.00 in 0.00 in 0.00 in ()
Month to date snowfall 0.0 0.0  
Since 1 July snowfall 0.0 0.0  
Since 1 September snowfall 0.0 0.0  
Snow Depth 0.00 in    
Sea Level Pressure  
Sea Level Pressure 30.17 in    
Wind  
Wind Speed 6 mph (ESE)    
Max Wind Speed 14 mph    
Max Gust Speed 18 mph    
Visibility 6 miles    
Events Fog    
T = Trace of Precipitation, MM = Missing Value Source: NWS Daily Summary

Daily Weather History Graph

Daily Weather History Graph

Search for Another Location

Airport or City:

Trip Planner

Search our weather history database for the weather conditions in past years. The results will help you decide how hot, cold, wet, or windy it might be!

Date:

Astronomy

Sep. 28, 2013 Rise Set
Actual Time 7:27 AM EDT 7:19 PM EDT
Civil Twilight 6:59 AM EDT 7:47 PM EDT
Nautical Twilight 6:26 AM EDT 8:20 PM EDT
Astronomical Twilight 5:53 AM EDT 8:53 PM EDT
Moon 1:08 AM EDT (9/28) 3:43 PM EDT (9/28)
Length of Visible Light 12h 48m
Length of Day
11h 52m
Last Quarter, 36% of the Moon is Illuminated
Sep 28
Last Quarter
Oct 4
New
Oct 11
First Quarter
Oct 18
Full
Oct 26
Last Quarter

Hourly Weather History & Observations

Time (EDT) Temp. Dew Point Humidity Pressure Visibility Wind Dir Wind Speed Gust Speed Precip Events Conditions
12:53 AM 57.9 °F 55.0 °F 90% 30.20 in 8.0 mi ENE 3.5 mph - N/A   Clear
1:53 AM 57.9 °F 55.0 °F 90% 30.20 in 9.0 mi ENE 4.6 mph - N/A   Clear
2:53 AM 57.0 °F 55.0 °F 93% 30.19 in 9.0 mi East 3.5 mph - N/A   Clear
3:53 AM 57.0 °F 55.9 °F 96% 30.18 in 9.0 mi ENE 4.6 mph - N/A   Clear
4:10 AM 57.2 °F 55.4 °F 94% 30.19 in 7.0 mi ENE 4.6 mph - N/A   Partly Cloudy
4:53 AM 55.0 °F 54.0 °F 96% 30.19 in 9.0 mi Calm Calm - N/A   Partly Cloudy
5:53 AM 55.9 °F 55.0 °F 97% 30.19 in 6.0 mi NNE 3.5 mph - N/A   Scattered Clouds
6:37 AM 55.4 °F 53.6 °F 94% 30.20 in 2.0 mi Calm Calm - N/A   Mostly Cloudy
6:44 AM 53.6 °F 53.6 °F 100% 30.20 in 0.5 mi Calm Calm - N/A Fog Fog
6:53 AM 55.0 °F 54.0 °F 96% 30.20 in 0.5 mi Calm Calm - N/A Fog Fog
7:05 AM 55.4 °F 53.6 °F 94% 30.20 in 0.2 mi Calm Calm - N/A Fog Fog
7:53 AM 54.0 °F 54.0 °F 100% 30.21 in 0.2 mi Calm Calm - N/A Fog Fog
8:16 AM 53.6 °F 53.6 °F 100% 30.21 in 0.5 mi Calm Calm - N/A Fog Fog
8:30 AM 55.4 °F 55.4 °F 100% 30.21 in 0.0 mi Calm Calm - N/A Fog Fog
8:33 AM 55.4 °F 55.4 °F 100% 30.21 in 0.0 mi Calm Calm - N/A Fog Fog
8:53 AM 57.0 °F 57.0 °F 100% 30.21 in 0.0 mi Calm Calm - N/A Fog Fog
9:19 AM 57.2 °F 57.2 °F 100% 30.21 in 0.2 mi Calm Calm - N/A Fog Fog
9:27 AM 59.0 °F 59.0 °F 100% 30.21 in 1.2 mi Calm Calm - N/A   Scattered Clouds
9:38 AM 60.8 °F 59.0 °F 94% 30.21 in 2.5 mi Calm Calm - N/A   Scattered Clouds
9:49 AM 60.8 °F 60.8 °F 100% 30.21 in 4.0 mi Calm Calm - N/A   Scattered Clouds
9:53 AM 61.0 °F 60.1 °F 97% 30.21 in 4.0 mi SE 3.5 mph - N/A   Scattered Clouds
10:53 AM 66.9 °F 59.0 °F 76% 30.21 in 10.0 mi South 5.8 mph - N/A   Clear
11:53 AM 70.0 °F 55.9 °F 61% 30.20 in 10.0 mi SSE 4.6 mph - N/A   Clear
12:53 PM 73.0 °F 55.0 °F 53% 30.18 in 10.0 mi SSE 9.2 mph - N/A   Partly Cloudy
1:53 PM 73.9 °F 52.0 °F 46% 30.15 in 10.0 mi SE 8.1 mph 18.4 mph N/A   Scattered Clouds
2:53 PM 73.9 °F 52.0 °F 46% 30.13 in 10.0 mi SE 11.5 mph - N/A   Mostly Cloudy
3:53 PM 73.9 °F 52.0 °F 46% 30.11 in 10.0 mi SSE 9.2 mph - N/A   Mostly Cloudy
4:53 PM 73.0 °F 52.0 °F 48% 30.09 in 10.0 mi SE 11.5 mph - N/A   Mostly Cloudy
5:53 PM 73.0 °F 52.0 °F 48% 30.09 in 10.0 mi SE 6.9 mph - N/A   Scattered Clouds
6:53 PM 70.0 °F 53.1 °F 55% 30.08 in 10.0 mi ESE 6.9 mph - N/A   Mostly Cloudy
7:53 PM 68.0 °F 54.0 °F 61% 30.07 in 10.0 mi East 6.9 mph - N/A   Mostly Cloudy
8:53 PM 66.0 °F 54.0 °F 65% 30.07 in 10.0 mi East 5.8 mph - N/A   Scattered Clouds
9:53 PM 64.9 °F 55.9 °F 73% 30.06 in 10.0 mi ESE 4.6 mph - N/A   Partly Cloudy
10:53 PM 64.9 °F 57.9 °F 78% 30.05 in 10.0 mi ESE 5.8 mph - N/A   Partly Cloudy
11:53 PM 64.9 °F 55.9 °F 73% 30.03 in 10.0 mi SE 9.2 mph - N/A   Clear